• In Germany
  • List of Countries
  • For 7 days
  • Water Temperature
  • Satellite Maps
  • Weather Map
  • Weather Widgets
  • user-avatar
    Login

    Hourly Weather Veliko Tarnovo

    Today, 16 January, Tuesday

    Time Temperature Precipitation Wind Pressure Humidity
    00:00 -1°C° 0.4 mm 1 mps 744 mmHg 92%
    01:00 -1°C° 0.4 mm 1 mps 744 mmHg 92%
    02:00 -2°C° 0 mm 1 mps 743 mmHg 95%
    03:00 -2°C° 0.2 mm 1 mps 743 mmHg 95%
    04:00 -2°C° 0.2 mm 1 mps 742 mmHg 95%
    05:00 -2°C° 0.2 mm 1 mps 742 mmHg 95%
    06:00 -2°C° 0.1 mm 1 mps 741 mmHg 95%
    07:00 -2°C° 0.1 mm 1 mps 741 mmHg 94%
    08:00 -3°C° 0.1 mm 0 mps 740 mmHg 94%
    09:00 -2°C° 0 mm 0 mps 740 mmHg 91%
    10:00 -1°C° 0 mm 0 mps 740 mmHg 89%
    11:00 -1°C° 0 mm 0 mps 740 mmHg 86%
    12:00 0°C° 0 mm 0 mps 739 mmHg 86%
    13:00 +1°C° 0 mm 0 mps 738 mmHg 85%
    14:00 +3°C° 0 mm 1 mps 738 mmHg 84%
    15:00 +3°C° 0 mm 1 mps 737 mmHg 87%
    16:00 +2°C° 0 mm 1 mps 737 mmHg 89%
    17:00 +2°C° 0 mm 1 mps 736 mmHg 91%
    18:00 +2°C° 0 mm 1 mps 736 mmHg 90%
    19:00 +1°C° 0 mm 2 mps 735 mmHg 88%
    20:00 +1°C° 0 mm 2 mps 735 mmHg 87%
    21:00 +1°C° 0 mm 2 mps 735 mmHg 87%
    22:00 +1°C° 0 mm 2 mps 734 mmHg 87%
    23:00 +1°C° 0 mm 2 mps 734 mmHg 86%

    Tomorrow, 17 January, Wednesday

    Time Temperature Precipitation Wind Pressure Humidity
    00:00 +1°C° 0 mm 2 mps 734 mmHg 86%
    01:00 +1°C° 0 mm 2 mps 733 mmHg 85%
    02:00 +1°C° 0 mm 2 mps 733 mmHg 85%
    03:00 +1°C° 0 mm 2 mps 733 mmHg 84%
    04:00 +2°C° 0 mm 2 mps 732 mmHg 83%
    05:00 +2°C° 0 mm 2 mps 732 mmHg 82%
    06:00 +2°C° 0 mm 2 mps 731 mmHg 80%
    07:00 +2°C° 0 mm 2 mps 731 mmHg 79%
    08:00 +2°C° 0 mm 2 mps 730 mmHg 78%
    09:00 +3°C° 0 mm 3 mps 730 mmHg 78%
    10:00 +4°C° 0 mm 3 mps 729 mmHg 77%
    11:00 +7°C° 0 mm 3 mps 728 mmHg 76%
    12:00 +7°C° 0 mm 3 mps 727 mmHg 76%
    13:00 +8°C° 0 mm 3 mps 726 mmHg 75%
    14:00 +7°C° 0 mm 4 mps 725 mmHg 74%
    15:00 +7°C° 0.2 mm 4 mps 724 mmHg 75%
    16:00 +6°C° 0.2 mm 4 mps 723 mmHg 76%
    17:00 +6°C° 0.2 mm 4 mps 722 mmHg 77%
    18:00 +6°C° 0.3 mm 4 mps 721 mmHg 79%
    19:00 +5°C° 0.3 mm 4 mps 721 mmHg 81%
    20:00 +5°C° 0.3 mm 5 mps 720 mmHg 83%
    21:00 +3°C° 0.4 mm 6 mps 721 mmHg 83%
    22:00 +3°C° 0.4 mm 7 mps 721 mmHg 83%
    23:00 +1°C° 0.4 mm 8 mps 722 mmHg 83%

    Day after tomorrow, 18 January, Thursday

    Time Temperature Precipitation Wind Pressure Humidity
    00:00 0°C° 0.1 mm 9 mps 723 mmHg 80%
    01:00 -2°C° 0.1 mm 10 mps 723 mmHg 76%
    02:00 -3°C° 0.1 mm 10 mps 724 mmHg 73%
    03:00 -3°C° 0.1 mm 11 mps 725 mmHg 71%
    04:00 -3°C° 0.1 mm 11 mps 726 mmHg 69%
    05:00 -5°C° 0.1 mm 12 mps 727 mmHg 67%
    06:00 -5°C° 0 mm 12 mps 728 mmHg 66%
    07:00 -4°C° 0 mm 11 mps 729 mmHg 65%
    08:00 -6°C° 0 mm 11 mps 730 mmHg 65%
    09:00 -4°C° 0 mm 11 mps 731 mmHg 64%
    10:00 -3°C° 0 mm 11 mps 732 mmHg 63%
    11:00 -3°C° 0 mm 11 mps 733 mmHg 62%
    12:00 -2°C° 0 mm 10 mps 734 mmHg 60%
    13:00 0°C° 0 mm 10 mps 734 mmHg 58%
    14:00 +1°C° 0 mm 9 mps 734 mmHg 57%
    15:00 0°C° 0 mm 8 mps 735 mmHg 59%
    16:00 -1°C° 0 mm 7 mps 735 mmHg 62%
    17:00 0°C° 0 mm 5 mps 736 mmHg 64%
    18:00 -1°C° 0 mm 5 mps 736 mmHg 66%
    19:00 -1°C° 0 mm 4 mps 737 mmHg 67%
    20:00 -1°C° 0 mm 3 mps 737 mmHg 68%
    21:00 -1°C° 0 mm 3 mps 737 mmHg 65%
    22:00 0°C° 0 mm 3 mps 737 mmHg 63%
    23:00 +1°C° 0 mm 2 mps 736 mmHg 60%

    19 January, Friday

    Time Temperature Precipitation Wind Pressure Humidity
    00:00 +1°C° 0 mm 2 mps 736 mmHg 58%
    01:00 0°C° 0 mm 3 mps 736 mmHg 57%
    02:00 0°C° 0 mm 3 mps 736 mmHg 55%
    03:00 0°C° 0 mm 3 mps 735 mmHg 55%
    04:00 +1°C° 0 mm 3 mps 735 mmHg 56%
    05:00 +1°C° 0 mm 3 mps 735 mmHg 56%
    06:00 +1°C° 0 mm 3 mps 735 mmHg 56%
    07:00 +2°C° 0 mm 2 mps 735 mmHg 56%
    08:00 +2°C° 0 mm 2 mps 735 mmHg 56%
    09:00 +4°C° 0 mm 2 mps 735 mmHg 53%
    10:00 +5°C° 0 mm 2 mps 735 mmHg 50%
    11:00 +7°C° 0 mm 2 mps 735 mmHg 47%
    12:00 +8°C° 0 mm 2 mps 735 mmHg 47%
    13:00 +9°C° 0 mm 2 mps 735 mmHg 47%
    14:00 +9°C° 0 mm 2 mps 734 mmHg 47%
    15:00 +8°C° 0 mm 2 mps 734 mmHg 51%
    16:00 +7°C° 0 mm 2 mps 734 mmHg 56%
    17:00 +6°C° 0 mm 2 mps 734 mmHg 61%
    18:00 +5°C° 0 mm 2 mps 735 mmHg 59%
    19:00 +5°C° 0 mm 2 mps 735 mmHg 58%
    20:00 +4°C° 0 mm 2 mps 735 mmHg 57%
    21:00 +4°C° 0 mm 2 mps 735 mmHg 57%
    22:00 +4°C° 0 mm 2 mps 735 mmHg 57%
    23:00 +4°C° 0 mm 2 mps 735 mmHg 57%

    20 January, Saturday

    Time Temperature Precipitation Wind Pressure Humidity
    00:00 +4°C° 0 mm 2 mps 735 mmHg 59%
    01:00 +4°C° 0 mm 2 mps 735 mmHg 60%
    02:00 +4°C° 0 mm 2 mps 735 mmHg 62%
    03:00 +4°C° 0 mm 2 mps 734 mmHg 63%
    04:00 +4°C° 0 mm 2 mps 734 mmHg 65%
    05:00 +4°C° 0 mm 2 mps 734 mmHg 66%
    06:00 +4°C° 0 mm 2 mps 734 mmHg 66%
    07:00 +4°C° 0 mm 2 mps 734 mmHg 67%
    08:00 +4°C° 0 mm 2 mps 734 mmHg 68%
    09:00 +4°C° 0 mm 3 mps 734 mmHg 67%
    10:00 +7°C° 0 mm 3 mps 734 mmHg 66%
    11:00 +9°C° 0 mm 3 mps 734 mmHg 65%
    12:00 +9°C° 0 mm 3 mps 733 mmHg 64%
    13:00 +10°C° 0 mm 4 mps 733 mmHg 64%
    14:00 +11°C° 0 mm 4 mps 732 mmHg 63%
    15:00 +10°C° 0 mm 4 mps 732 mmHg 67%
    16:00 +10°C° 0 mm 4 mps 732 mmHg 71%
    17:00 +8°C° 0 mm 4 mps 731 mmHg 75%
    18:00 +8°C° 0 mm 4 mps 731 mmHg 78%
    19:00 +8°C° 0 mm 5 mps 731 mmHg 80%
    20:00 +8°C° 0 mm 5 mps 731 mmHg 82%
    21:00 +8°C° 0 mm 6 mps 731 mmHg 81%
    22:00 +8°C° 0 mm 6 mps 731 mmHg 81%
    23:00 +8°C° 0 mm 7 mps 731 mmHg 81%

    21 January, Sunday

    Time Temperature Precipitation Wind Pressure Humidity
    00:00 +8°C° 0 mm 7 mps 730 mmHg 80%
    01:00 +8°C° 0 mm 7 mps 729 mmHg 80%
    02:00 +8°C° 0 mm 7 mps 729 mmHg 79%
    03:00 +9°C° 0 mm 7 mps 728 mmHg 78%
    04:00 +9°C° 0 mm 7 mps 728 mmHg 77%
    05:00 +9°C° 0 mm 7 mps 727 mmHg 75%
    06:00 +9°C° 0.1 mm 8 mps 726 mmHg 76%
    07:00 +9°C° 0.1 mm 8 mps 726 mmHg 76%
    08:00 +8°C° 0.1 mm 9 mps 726 mmHg 76%
    09:00 +9°C° 0.2 mm 10 mps 725 mmHg 72%
    10:00 +11°C° 0.2 mm 11 mps 725 mmHg 69%
    11:00 +10°C° 0.2 mm 12 mps 724 mmHg 65%
    12:00 +12°C° 0.2 mm 12 mps 724 mmHg 65%
    13:00 +12°C° 0.2 mm 12 mps 723 mmHg 64%
    14:00 +12°C° 0.2 mm 12 mps 723 mmHg 64%
    15:00 +11°C° 0.6 mm 10 mps 723 mmHg 68%
    16:00 +11°C° 0.6 mm 9 mps 722 mmHg 72%
    17:00 +10°C° 0.6 mm 8 mps 722 mmHg 76%
    18:00 +9°C° 0.8 mm 7 mps 722 mmHg 78%
    19:00 +9°C° 0.8 mm 6 mps 722 mmHg 81%
    20:00 +9°C° 0.8 mm 5 mps 722 mmHg 84%
    21:00 +8°C° 1.9 mm 5 mps 721 mmHg 85%
    22:00 +7°C° 1.9 mm 5 mps 721 mmHg 87%
    23:00 +6°C° 1.9 mm 4 mps 721 mmHg 88%
    Show more